Date String (YYYY-MM-DD hh:mm:ss) UTC,Instrument flags,Ambient pressure (hPa),Sample flow (lpm),Bypass flow (lpm),Sample temperature (°C),Ambient temperature (°C),ASC tube jacket temperature (°C),LED temperature (°C),Box temperature (°C),Sample RH (%),Span deviation,Mass concentration (μg/m³),Mass concentration (μg/m³),Mass concentration (μg/m³)
DateTimeUTC,F1_M11,P_M11,Q1_M11,Q2_M11,T1_M11,T2_M11,T3_M11,T4_M11,T5_M11,U1_M11,ZSPAN_M11,X0_M11,X2_M11,X1_M11
2022-12-31 08:00:00,,0812.7,5.02,0.00,22.6,22.0,00.0,31.3,24.4,11.4,0001.3,0017.63,0012.84,0012.16
2022-12-31 08:01:00,,0812.7,5.01,0.00,22.5,21.5,00.0,31.3,24.3,11.1,0000.0,0017.81,0012.79,0012.08
2022-12-31 08:02:00,,0812.7,4.98,0.00,22.5,21.1,00.0,31.3,24.1,11.0,0000.0,0017.77,0012.81,0012.13
2022-12-31 08:03:00,,0812.8,5.03,0.00,22.4,20.6,00.0,31.3,23.9,11.0,0000.6,0017.68,0012.79,0012.14
2022-12-31 08:04:00,,0812.9,5.04,0.00,22.3,20.4,00.0,31.3,23.8,11.0,0001.1,0017.57,0012.77,0012.13
2022-12-31 08:05:00,,0812.8,4.97,0.00,22.3,20.4,00.0,31.3,23.8,11.0,0001.1,0017.56,0012.82,0012.20
2022-12-31 08:06:00,,0812.8,5.04,0.00,22.2,20.2,00.0,31.2,23.7,11.0,0000.9,0017.47,0012.88,0012.28
2022-12-31 08:07:00,,0812.8,5.05,0.00,22.2,20.2,00.0,31.2,23.7,11.2,0001.0,0017.27,0012.76,0012.19
2022-12-31 08:08:00,,0812.8,4.98,0.00,22.1,20.1,00.0,31.2,23.6,11.4,0000.8,0017.20,0012.73,0012.14
2022-12-31 08:09:00,,0812.7,5.00,0.00,22.1,20.2,00.0,31.1,23.6,11.5,0000.7,0018.05,0012.85,0012.26
2022-12-31 08:10:00,,0812.6,5.05,0.00,22.0,20.2,00.0,31.1,23.6,11.6,0000.5,0017.96,0012.90,0012.31
2022-12-31 08:11:00,,0812.6,5.00,0.00,22.0,20.3,00.0,31.1,23.6,11.5,0000.2,0018.19,0013.10,0012.53
2022-12-31 08:12:00,,0812.6,5.01,0.00,22.0,20.3,00.0,31.0,23.6,11.5,-000.1,0017.49,0013.02,0012.50
2022-12-31 08:13:00,,0812.6,4.98,0.00,22.0,20.3,00.0,31.0,23.6,11.4,0000.3,0017.17,0012.78,0012.29
2022-12-31 08:14:00,,0812.7,5.00,0.00,22.0,20.4,00.0,31.0,23.6,11.3,0000.3,0016.96,0012.62,0012.15
2022-12-31 08:15:00,,0812.7,5.00,0.00,22.0,20.3,00.0,31.0,23.6,11.3,0000.0,0016.80,0012.49,0012.04
2022-12-31 08:16:00,,0812.7,5.04,0.00,22.0,20.3,00.0,31.0,23.6,11.2,0000.0,0016.64,0012.38,0011.94
2022-12-31 08:17:00,,0812.7,4.99,0.00,21.9,20.5,00.0,30.9,23.6,11.2,0000.0,0016.48,0012.28,0011.86
2022-12-31 08:18:00,,0812.6,4.98,0.00,22.0,21.5,00.0,30.9,23.9,11.1,0000.0,0016.60,0012.36,0011.92
2022-12-31 08:19:00,,0812.5,4.96,0.00,22.2,22.4,00.0,30.9,24.1,11.1,0000.0,0016.79,0012.53,0012.08
2022-12-31 08:20:00,,0812.4,5.01,0.00,22.3,22.6,00.0,30.9,24.3,11.1,0000.0,0016.25,0012.65,0012.22
2022-12-31 08:21:00,,0812.4,5.02,0.00,22.3,22.3,00.0,31.0,24.2,11.1,0000.0,0016.32,0012.81,0012.36
2022-12-31 08:22:00,,0812.5,5.01,0.00,22.3,21.9,00.0,31.0,24.2,11.1,0000.0,0016.55,0012.86,0012.43
2022-12-31 08:23:00,,0812.5,4.97,0.00,22.3,21.7,00.0,31.0,24.1,11.1,0000.0,0016.56,0012.87,0012.42
2022-12-31 08:24:00,,0812.5,4.98,0.00,22.3,21.5,00.0,31.1,24.1,11.1,0000.0,0016.95,0012.90,0012.44
2022-12-31 08:25:00,,0812.6,5.02,0.00,22.3,21.3,00.0,31.1,24.0,11.0,0000.4,0017.51,0012.94,0012.46
2022-12-31 08:26:00,,0812.5,5.01,0.00,22.3,21.0,00.0,31.1,23.9,11.1,0003.1,0017.81,0012.98,0012.49
2022-12-31 08:27:00,,0812.5,4.99,0.00,22.2,20.9,00.0,31.1,23.9,11.3,0002.9,0017.61,0012.78,0012.31
2022-12-31 08:28:00,,0812.5,4.99,0.00,22.2,20.8,00.0,31.1,23.9,11.3,0003.0,0017.48,0012.59,0012.08
2022-12-31 08:29:00,,0812.4,5.00,0.00,22.2,20.8,00.0,31.1,23.9,11.4,0003.3,0017.21,0012.37,0011.85
2022-12-31 08:30:00,,0812.4,4.97,0.00,22.2,20.9,00.0,31.1,23.9,11.7,0003.6,0016.73,0011.82,0011.35
2022-12-31 08:31:00,,0812.4,5.01,0.00,22.2,20.9,00.0,31.1,23.9,11.9,0003.3,0016.08,0011.18,0010.71
2022-12-31 08:32:00,,0812.5,5.00,0.00,22.2,20.9,00.0,31.1,23.9,12.1,0002.0,0015.42,0010.56,0010.13
2022-12-31 08:33:00,,0812.5,5.02,0.00,22.2,20.9,00.0,31.1,23.9,11.8,0000.0,0014.58,0010.15,0009.70
2022-12-31 08:34:00,,0812.6,5.02,0.00,22.2,20.9,00.0,31.1,23.9,11.5,0000.0,0014.43,0010.01,0009.56
2022-12-31 08:35:00,,0812.7,4.97,0.00,22.2,20.9,00.0,31.1,23.9,11.3,0000.0,0014.15,0009.95,0009.48
2022-12-31 08:36:00,,0812.7,4.97,0.00,22.2,20.7,00.0,31.1,23.8,11.4,0000.0,0013.52,0009.74,0009.27
2022-12-31 08:37:00,,0812.6,5.03,0.00,22.1,20.7,00.0,31.0,23.8,11.4,0000.0,0012.90,0009.44,0008.98
2022-12-31 08:38:00,,0812.7,5.02,0.00,22.1,20.6,00.0,31.0,23.7,11.4,0000.0,0012.92,0009.35,0008.84
2022-12-31 08:39:00,,0812.6,5.01,0.00,22.1,20.5,00.0,31.0,23.7,11.6,0000.0,0012.76,0009.22,0008.73
2022-12-31 08:40:00,,0812.5,4.99,0.00,22.1,20.5,00.0,31.0,23.7,11.7,0000.0,0012.58,0009.04,0008.57
2022-12-31 08:41:00,,0812.4,4.99,0.00,22.1,20.6,00.0,31.0,23.7,11.7,0000.0,0012.58,0009.10,0008.60
2022-12-31 08:42:00,,0812.4,5.01,0.00,22.1,21.2,00.0,30.9,23.9,11.7,0000.0,0012.83,0009.37,0008.85
2022-12-31 08:43:00,,0812.5,5.02,0.00,22.2,22.1,00.0,30.9,24.1,11.6,0000.0,0013.18,0009.64,0009.11
2022-12-31 08:44:00,,0812.5,4.98,0.00,22.3,22.9,00.0,31.0,24.4,11.5,0000.0,0013.46,0009.84,0009.29
2022-12-31 08:45:00,,0812.5,4.96,0.00,22.4,22.7,00.0,31.0,24.4,11.5,0000.0,0013.41,0009.76,0009.22
2022-12-31 08:46:00,,0812.5,5.02,0.00,22.4,22.3,00.0,31.1,24.4,11.6,0000.0,0013.10,0009.52,0009.00
2022-12-31 08:47:00,,0812.5,5.03,0.00,22.4,22.0,00.0,31.1,24.3,11.7,0000.0,0012.80,0009.27,0008.77
2022-12-31 08:48:00,,0812.6,5.00,0.00,22.4,21.8,00.0,31.1,24.2,11.8,0000.0,0012.46,0009.01,0008.52
2022-12-31 08:49:00,,0812.8,4.98,0.00,22.4,21.5,00.0,31.2,24.2,11.6,0000.0,0012.20,0008.86,0008.38
2022-12-31 08:50:00,,0812.8,4.99,0.00,22.4,21.0,00.0,31.2,24.0,11.2,0000.0,0012.65,0009.22,0008.70
2022-12-31 08:51:00,,0812.6,5.00,0.00,22.3,20.8,00.0,31.2,23.9,11.2,0000.0,0013.13,0009.60,0009.03
2022-12-31 08:52:00,,0812.6,5.02,0.00,22.3,20.6,00.0,31.2,23.9,11.3,0000.0,0013.74,0009.75,0009.17
2022-12-31 08:53:00,,0812.5,5.01,0.00,22.3,20.6,00.0,31.1,23.9,11.5,0000.0,0014.03,0009.80,0009.23
2022-12-31 08:54:00,,0812.5,4.97,0.00,22.2,20.7,00.0,31.1,23.9,11.6,0000.0,0014.05,0009.81,0009.24
2022-12-31 08:55:00,,0812.5,4.98,0.00,22.2,20.7,00.0,31.1,23.9,11.6,0000.0,0014.19,0009.78,0009.24
2022-12-31 08:56:00,,0812.5,4.99,0.00,22.2,20.8,00.0,31.1,23.9,11.6,0000.0,0014.24,0009.78,0009.25
2022-12-31 08:57:00,,0812.6,5.03,0.00,22.2,20.8,00.0,31.1,24.0,11.5,0000.0,0014.32,0009.86,0009.34
2022-12-31 08:58:00,,0812.6,4.97,0.00,22.2,20.8,00.0,31.1,23.9,11.5,0000.0,0014.61,0010.11,0009.56
2022-12-31 08:59:00,,0812.5,4.97,0.00,22.2,20.8,00.0,31.1,23.9,11.4,0000.0,0015.05,0010.46,0009.89
